Powrót do katalogu

SL-6 R/B(2)

AktywnyHEO
NORAD 18106·ROCKET BODY·🇷🇺 Russia

Wystrzelony Jun 12, 1987 z Plesetsk Cosmodrome

Loading…

Następne Przeloty (najbliższe 24 godziny)

TLE

ŚwieżeSource: Space-Track

Epoka: Sep 14, 2026, 15:50 UTC

1 18106U 87050D   26257.65986139 -.00000443  00000-0  00000-0 0  9997
2 18106  70.2429 117.6697 5464875  24.3351 114.0680  2.03576477289185

Śledź SL-6 R/B(2) w czasie rzeczywistym z AllMySat

Download on the App Store